Location: Unspecified
(0.0000°N, 0.0000°E)
Time: 16:52:21
(UTC+00:00)

Hubble Space Telescope - Pass Details

Date: 16 December 2018
Orbit: 537 x 540 km, 28.5° (Epoch: 11 December)

Event Time Altitude Azimuth Distance (km) Brightness Sun altitude
Rises 18:14:04 0° 254° (WSW) 2,671 6.9 -4.2°
Reaches altitude 10° 18:16:28 10° 263° (W) 1,780 5.0 -4.8°
Maximum altitude 18:20:15 35° 330° (NNW) 863 1.9 -5.6°
Drops below altitude 10° 18:24:02 10° 37° (NE) 1,777 2.9 -6.5°
Enters shadow 18:24:58 - 42° (NE) 2,115 3.2 -6.7°
